Evansville, IN

10:14 PM CDT on June 27, 2017 (GMT -0500)
Evansville Regional

Weather History for KEVV - August, 2013

Change the Weather History Date:

Tuesday, August 20, 2013

  Actual Average Record
Temperature  
Mean Temperature 77 °F 77 °F  
Max Temperature 87 °F 88 °F 102 °F (1983)
Min Temperature 66 °F 65 °F 50 °F (1967)
Degree Days  
Heating Degree Days 0 0  
Month to date heating degree days 0 0  
Since 1 June heating degree days 1 6  
Since 1 July heating degree days 0 0  
Cooling Degree Days 12 12  
Month to date cooling degree days 198 243  
Year to date cooling degree days 1016 1079  
Since 1 June cooling degree days 845 944  
Growing Degree Days 26 (Base 50)    
Moisture  
Dew Point 67 °F    
Average Humidity 72    
Maximum Humidity 93    
Minimum Humidity 51    
Precipitation  
Precipitation 0.52 in 0.10 in 3.16 in (1931)
Month to date precipitation 1.36 1.94  
Year to date precipitation 35.05 29.88  
Snow  
Snow 0.00 in 0.00 in - ()
Month to date snowfall 0.0 0.0  
Since 1 June snowfall 0.0 0.0  
Since 1 July snowfall 0.0 0.0  
Snow Depth 0.00 in    
Sea Level Pressure  
Sea Level Pressure 30.09 in    
Wind  
Wind Speed 2 mph (ENE)    
Max Wind Speed 17 mph    
Max Gust Speed 21 mph    
Visibility 7 miles    
Events Rain    
T = Trace of Precipitation, MM = Missing Value Source: NWS Daily Summary

Daily Weather History Graph

Daily Weather History Graph

Search for Another Location

Airport or City:

Trip Planner

Search our weather history database for the weather conditions in past years. The results will help you decide how hot, cold, wet, or windy it might be!

Date:

Astronomy

Aug. 20, 2013 Rise Set
Actual Time 6:09 AM CDT 7:36 PM CDT
Civil Twilight 5:42 AM CDT 8:04 PM CDT
Nautical Twilight 5:08 AM CDT 8:37 PM CDT
Astronomical Twilight 4:33 AM CDT 9:12 PM CDT
Moon 7:08 PM CDT (8/20) 5:38 AM CDT (8/20)
Length of Visible Light 14h 21m
Length of Day
13h 26m
Full, 100% of the Moon is Illuminated
Aug 20
Full
Aug 20
Full
Aug 28
Last Quarter
Sep 5
New
Sep 12
First Quarter

Hourly Weather History & Observations

Time (CDT) Temp. Heat Index Dew Point Humidity Pressure Visibility Wind Dir Wind Speed Gust Speed Precip Events Conditions
12:54 AM 70.0 °F - 66.9 °F 90% 30.08 in 5.0 mi Calm Calm - N/A   Clear
1:54 AM 68.0 °F - 66.0 °F 93% 30.07 in 4.0 mi Calm Calm - N/A   Clear
2:54 AM 68.0 °F - 66.0 °F 93% 30.07 in 5.0 mi ENE 3.5 mph - N/A   Clear
3:54 AM 68.0 °F - 66.0 °F 93% 30.08 in 4.0 mi Calm Calm - N/A   Clear
4:54 AM 68.0 °F - 66.0 °F 93% 30.07 in 4.0 mi ENE 3.5 mph - N/A   Clear
5:54 AM 66.0 °F - 64.0 °F 93% 30.09 in 4.0 mi Calm Calm - N/A   Clear
6:54 AM 68.0 °F - 66.0 °F 93% 30.11 in 4.0 mi Calm Calm - N/A   Clear
7:54 AM 72.0 °F - 68.0 °F 87% 30.12 in 5.0 mi ENE 3.5 mph - N/A   Clear
8:54 AM 75.9 °F - 69.1 °F 79% 30.13 in 8.0 mi Calm Calm - N/A   Clear
9:54 AM 81.0 °F 83.3 °F 66.9 °F 62% 30.13 in 10.0 mi ESE 3.5 mph - N/A   Clear
10:54 AM 84.0 °F 86.5 °F 66.9 °F 56% 30.13 in 10.0 mi Calm Calm - N/A   Clear
11:54 AM 84.0 °F 86.3 °F 66.0 °F 55% 30.12 in 10.0 mi ENE 3.5 mph - N/A   Scattered Clouds
12:54 PM 84.9 °F 87.1 °F 66.0 °F 53% 30.11 in 10.0 mi Calm Calm - N/A   Mostly Cloudy
1:54 PM 84.0 °F 86.3 °F 66.0 °F 55% 30.09 in 10.0 mi East 3.5 mph - N/A   Overcast
2:14 PM 75.2 °F - 69.8 °F 83% 30.11 in 1.8 mi West 17.3 mph - 0.05 in Rain Heavy Rain
2:28 PM 75.2 °F - 64.4 °F 69% 30.10 in 0.8 mi North 11.5 mph 17.3 mph 0.32 in Rain Heavy Rain
2:37 PM 75.2 °F - 66.2 °F 73% 30.09 in 1.8 mi NE 12.7 mph - 0.49 in Rain Heavy Rain
2:41 PM 77.0 °F - 66.2 °F 69% 30.09 in 3.0 mi North 13.8 mph 20.7 mph 0.52 in Rain Rain
2:54 PM 81.0 °F 84.1 °F 69.1 °F 67% 30.07 in 10.0 mi NNE 8.1 mph - 0.52 in Rain Light Rain
3:54 PM 84.0 °F 87.0 °F 68.0 °F 58% 30.07 in 10.0 mi ESE 3.5 mph - 0.00 in   Mostly Cloudy
4:54 PM 86.0 °F 88.8 °F 66.9 °F 53% 30.05 in 10.0 mi ENE 6.9 mph - N/A   Partly Cloudy
5:54 PM 84.9 °F 86.6 °F 64.9 °F 51% 30.05 in 10.0 mi ENE 3.5 mph - N/A   Clear
6:54 PM 82.9 °F 85.0 °F 66.0 °F 56% 30.06 in 10.0 mi East 3.5 mph - N/A   Clear
7:54 PM 78.1 °F - 66.9 °F 68% 30.07 in 10.0 mi Calm Calm - N/A   Clear
8:54 PM 78.1 °F - 69.1 °F 74% 30.08 in 10.0 mi Calm Calm - N/A   Clear
9:54 PM 73.9 °F - 69.1 °F 85% 30.09 in 10.0 mi Calm Calm - N/A   Clear
10:54 PM 73.0 °F - 69.1 °F 87% 30.10 in 10.0 mi Calm Calm - N/A   Clear
11:54 PM 71.1 °F - 69.1 °F 93% 30.10 in 10.0 mi Calm Calm - N/A   Clear